Weather History for Columbus AFB, MS

Change the Weather History Date:

Thursday, February 14, 2013

  Actual Average Record
Temperature  
Mean Temperature 44 °F -  
Max Temperature 59 °F 57 °F 71 °F (2003)
Min Temperature 28 °F 38 °F 21 °F (2008)
Degree Days  
Heating Degree Days 22    
Moisture  
Dew Point 34 °F    
Average Humidity 87    
Maximum Humidity 100    
Minimum Humidity 39    
Precipitation  
Precipitation 0.00 in - - ()
Sea Level Pressure  
Sea Level Pressure 30.10 in    
Wind  
Wind Speed 2 mph (SSW)    
Max Wind Speed 10 mph    
Max Gust Speed -    
Visibility 6 miles    
Events Fog    
Averages and records for this station are not official NWS values.
T = Trace of Precipitation, MM = Missing Value Source: NWS Daily Summary

Daily Weather History Graph

Daily Weather History Graph

Search for Another Location

Airport:

Trip Planner

Search our weather history database for the weather conditions in past years. The results will help you decide how hot, cold, wet, or windy it might be!

Date:

Astronomy

Feb. 14, 2013 Rise Set
Actual Time 6:38 AM CST 5:37 PM CST
Civil Twilight 6:13 AM CST 6:03 PM CST
Nautical Twilight 5:44 AM CST 6:32 PM CST
Astronomical Twilight 5:15 AM CST 7:01 PM CST
Moon 8:56 AM CST (2/14) 10:22 PM CST (2/14)
Length of Visible Light 11h 49m
Length of Day
10h 58m
Waxing Crescent, 22% of the Moon is Illuminated
Feb 14
Waxing Crescent
Feb 17
First Quarter
Feb 25
Full
Mar 4
Last Quarter
Mar 11
New

Hourly Weather History & Observations

Time (CST) Temp. Windchill Dew Point Humidity Pressure Visibility Wind Dir Wind Speed Gust Speed Precip Events Conditions
12:48 AM 41.0 °F - 33.8 °F 76% 30.07 in 10.0 mi NW 1.2 mph - N/A   Scattered Clouds
12:58 AM 40.1 °F - 34.5 °F 80% 30.09 in 10.0 mi NW 1.2 mph - N/A   Partly Cloudy
1:58 AM 34.5 °F - 33.3 °F 95% 30.09 in 10.0 mi SSW 1.2 mph - N/A   Clear
2:58 AM 34.5 °F - 34.3 °F 99% 30.07 in 10.0 mi Calm Calm - N/A   Clear
3:58 AM 32.0 °F - 31.6 °F 99% 30.06 in 10.0 mi Calm Calm - N/A   Clear
4:58 AM 31.3 °F - 31.1 °F 99% 30.09 in 10.0 mi Calm Calm - N/A   Clear
5:18 AM 32.0 °F 27.5 °F 32.0 °F 100% 30.08 in 1.2 mi SE 4.6 mph - N/A   Clear
5:23 AM 32.0 °F 27.5 °F 32.0 °F 100% 30.08 in 1.0 mi SE 4.6 mph - N/A   Clear
5:28 AM 32.0 °F 28.7 °F 32.0 °F 100% 30.08 in 0.5 mi SSE 3.5 mph - N/A Fog Fog
5:29 AM 32.0 °F 28.7 °F 32.0 °F 100% 30.09 in 0.5 mi SSE 3.5 mph - N/A Fog Fog
5:48 AM 28.4 °F - 28.4 °F 100% 30.09 in 0.5 mi SSE 2.3 mph - N/A Fog Fog
5:58 AM 29.7 °F - 29.3 °F 99% 30.11 in 0.8 mi Calm Calm - N/A   Clear
6:03 AM 30.2 °F - 28.4 °F 93% 30.10 in 1.0 mi Calm Calm - N/A   Clear
6:18 AM 30.2 °F - 30.2 °F 100% 30.11 in 1.0 mi South 2.3 mph - N/A   Clear
6:43 AM 30.2 °F - 30.2 °F 100% 30.11 in 1.0 mi SSE 2.3 mph - N/A   Partly Cloudy
6:48 AM 32.0 °F - 32.0 °F 100% 30.11 in 1.0 mi Calm Calm - N/A   Clear
6:58 AM 30.9 °F - 30.7 °F 99% 30.13 in 1.0 mi SE 1.2 mph - N/A   Clear
7:09 AM 32.0 °F - 32.0 °F 100% 30.11 in 0.5 mi Calm Calm - N/A Fog Fog
7:13 AM 32.0 °F - 32.0 °F 100% 30.12 in 0.2 mi Calm Calm - N/A Fog Fog
7:18 AM 32.0 °F - 32.0 °F 100% 30.12 in 0.2 mi Calm Calm - N/A Fog Fog
7:43 AM 32.0 °F - 32.0 °F 100% 30.11 in 0.2 mi NNW 2.3 mph - N/A Fog Fog
7:48 AM 32.0 °F - 32.0 °F 100% 30.11 in 0.2 mi NNW 1.2 mph - N/A Fog Fog
7:53 AM 33.8 °F - 32.0 °F 93% 30.11 in 0.2 mi NW 2.3 mph - N/A Fog Fog
7:58 AM 34.2 °F - 34.0 °F 99% 30.12 in 0.5 mi NW 1.2 mph - N/A Fog Fog
8:03 AM 35.6 °F - 35.6 °F 100% 30.11 in 0.8 mi WNW 1.2 mph - N/A   Clear
8:08 AM 35.6 °F - 35.6 °F 100% 30.11 in 2.0 mi NW 1.2 mph - N/A   Partly Cloudy
8:13 AM 37.4 °F - 37.4 °F 100% 30.10 in 4.0 mi Calm Calm - N/A   Partly Cloudy
8:18 AM 37.4 °F - 37.4 °F 100% 30.11 in 5.0 mi Calm Calm - N/A   Clear
8:58 AM 42.4 °F - 42.4 °F 100% 30.12 in 10.0 mi Variable 1.2 mph - N/A   Clear
9:58 AM 49.5 °F - 39.2 °F 68% 30.13 in 10.0 mi SW 4.6 mph - N/A   Clear
10:58 AM 52.9 °F - 39.4 °F 60% 30.13 in 10.0 mi WSW 4.6 mph - N/A   Partly Cloudy
11:58 AM 54.5 °F - 38.1 °F 54% 30.12 in 10.0 mi Variable 3.5 mph - N/A   Partly Cloudy
12:58 PM 56.8 °F - 37.8 °F 49% 30.09 in 10.0 mi Variable 2.3 mph - N/A   Partly Cloudy
1:58 PM 58.3 °F - 36.3 °F 44% 30.08 in 10.0 mi WSW 8.1 mph - N/A   Scattered Clouds
2:48 PM 59.0 °F - 37.4 °F 45% 30.06 in 10.0 mi SSE 5.8 mph - N/A   Mostly Cloudy
2:58 PM 58.8 °F - 36.0 °F 42% 30.07 in 10.0 mi SW 10.4 mph - N/A   Scattered Clouds
3:58 PM 59.7 °F - 34.9 °F 39% 30.07 in 10.0 mi WSW 4.6 mph - N/A   Clear
4:58 PM 58.6 °F - 35.1 °F 41% 30.07 in 10.0 mi SSE 4.6 mph - N/A   Clear
5:58 PM 49.3 °F - 37.0 °F 63% 30.09 in 10.0 mi South 2.3 mph - N/A   Clear
6:58 PM 45.1 °F - 38.8 °F 79% 30.09 in 10.0 mi Calm Calm - N/A   Clear
7:58 PM 41.5 °F - 39.2 °F 91% 30.09 in 10.0 mi Calm Calm - N/A   Clear
8:58 PM 39.2 °F 37.0 °F 37.9 °F 95% 30.09 in 10.0 mi SE 3.5 mph - N/A   Clear
9:58 PM 39.6 °F - 39.2 °F 99% 30.10 in 10.0 mi SE 1.2 mph - N/A   Clear
10:58 PM 37.0 °F - 36.7 °F 99% 30.10 in 10.0 mi Calm Calm - N/A   Clear
11:58 PM 37.0 °F - 36.9 °F 99% 30.10 in 10.0 mi Calm Calm - N/A   Clear